sat.trackr.live / text

‹ back to catalog

WILDFIRE 10

NORAD 57766 · 2023-133K

PAYLOAD ACTIVE UNKNOWN

§ Identity

Operator
Country
US
Launch date
2023-09-02
Launch site
AFWTR
Launch vehicle
Mass (kg)
RCS (m²)

External: N2YO · Heavens-Above · Gunter

§ Orbital elements

Epoch: 2026-09-21T17:37:03.799200Z

Period
103.92 min
Inclination
80.9990°
Eccentricity
0.0007686
Mean motion
13.85651451 rev/d
Perigee alt
938.3 km
Apogee alt
949.5 km
Semi-major
7,322.0 km
B*
3.5695e-5
RAAN
274.7880°
Arg perigee
102.5022°
Mean anomaly
257.6994°
Rev number
15,441

§ Raw data

WILDFIRE 101 57766U 23133K   26264.73407175  .00000052  00000+0  35695-4 0  99952 57766  80.9990 274.7880 0007686 102.5022 257.6994 13.85651451154419

JSON: /api/v1/satellites/57766 · /tle

For live sub-satellite position, see the globe view (requires WebGL).

§ Visibility from observer

Set your observer location to see the next 7 days of passes ≥ 10°. The values pass through the URL so the page stays shareable.

No JS? Fill the form by hand. The geolocation button needs JavaScript.

§ Radio — SatNOGS DB

ModeDescriptionDownlinkUplink
FM S-band telemetry 2.278 GHz

1 transmitter · refreshed weekly from db.satnogs.org